Content
SEND FEEDBACK

Daily
Averages
Monthly
Summary
Canada

CALGARY, ALBERTA


Home > North America > Canada > Alberta
Elevation: 3556 feet     Latitude: 51 06N     Longitude: 114 01W

WEATHER
 
SELECT A DAY
Number of Records: 192,071;   Date Range: 1/1/95 - 7/23/14
 
SHARE

PRINT THIS DATA

[ ← Previous Day ]
WEATHER ALMANAC - APRIL 25, 2014
[ Next Day → ]
[ °C ]   °F
Weather ElementAverageHighLow
Temperature37.7 °F44.6 °F (4:00 pm)33.8 °F (3:22 am)
Dewpoint30.9 °F33.8 °F (1:00 pm)28.4 °F (12:00 am)
Humidity76.3 %87 % (3:22 am)60 % (6:00 pm)
Barometer29.87 in29.93 in (10:00 pm)29.76 in (12:00 am)
Wind Speed8 mph15 mph (7:00 pm)
Wind Gust18.4 mph (6:00 pm)
Weather ElementAverage
Visibility11.6 mi
Wind DirectionENE (76.3 °)

Weather ElementTotal
Precipitation---
Heating Degree Days25.8 (Base 65)
Averaged from 35 records on April 25, 2014
WEATHER CONDITIONS BREAKOUT
WIND DIRECTION BREAKOUT
WEATHER BY HOUR - APRIL 25, 2014
[ °C ]   °F
Local TimeTemperatureDewpointHumidityBarometerVisibilityWind DirectionWind SpeedGust SpeedPrecipitationEventsConditions
12:00 AM39.2 °F28.4 °F65 %29.76 in15.0 miEast (80°)12.7 mphMostly Cloudy
1:00 AM37.4 °F28.4 °F70 %29.78 in15.0 miNE (50°)10.4 mphMostly Cloudy
1:27 AM35.6 °F30.2 °F81 %29.80 in15.0 miNNE (30°)6.9 mphMostly Cloudy
2:00 AM37.4 °F30.2 °F75 %29.81 in15.0 miNNE (20°)9.2 mphMostly Cloudy
2:32 AM35.6 °F30.2 °F81 %29.81 in10.0 miNorth (10°)10.4 mphRainLight Rain
2:52 AM35.6 °F30.2 °F81 %29.82 in5.0 miNNE (30°)9.2 mphRain-SnowLight Rain
3:00 AM35.6 °F30.2 °F81 %29.83 in5.0 miNE (40°)6.9 mphRainLight Rain
3:22 AM33.8 °F30.2 °F87 %29.83 in6.0 miNE (50°)5.8 mphOvercast
4:00 AM33.8 °F30.2 °F87 %29.83 in6.0 miNNE (30°)6.9 mphOvercast
5:00 AM33.8 °F30.2 °F87 %29.84 in6.0 miNE (40°)5.8 mphOvercast
6:00 AM34.0 °F30.0 °F80 %29.85 in6.0 miENE (70°)3.5 mphMist
6:00 AM33.8 °F30.2 °F87 %29.85 in6.0 miEast (80°)3.5 mphOvercast
6:23 AM33.8 °F30.2 °F87 %29.85 in10.0 miCalmOvercast
7:00 AM33.8 °F30.2 °F87 %29.86 in10.0 miENE (60°)2.3 mphOvercast
7:14 AM33.8 °F30.2 °F87 %29.86 in10.0 miENE (70°)3.5 mphMostly Cloudy
8:00 AM35.6 °F30.2 °F81 %29.87 in15.0 miCalmOvercast
9:00 AM35.6 °F30.2 °F81 %29.88 in6.0 miSouth (180°)5.8 mphRainLight Rain Showers
9:45 AM37.4 °F32.0 °F81 %29.88 in15.0 miSouth (180°)6.9 mphOvercast
10:00 AM39.2 °F32.0 °F75 %29.88 in15.0 miSSE (150°)8.1 mphMostly Cloudy
11:00 AM39.2 °F32.0 °F75 %29.89 in15.0 miSE (130°)6.9 mphOvercast
12:00 PM40.0 °F31.0 °F61 %29.91 in15.0 miESE (110°)9.2 mphPartly Cloudy
12:00 PM39.2 °F32.0 °F75 %29.91 in15.0 miESE (110°)9.2 mphOvercast
1:00 PM41.0 °F33.8 °F76 %29.91 in15.0 miEast (80°)10.4 mphOvercast
2:00 PM42.8 °F33.8 °F70 %29.90 in15.0 miEast (90°)11.5 mphMostly Cloudy
3:00 PM42.8 °F32.0 °F66 %29.90 in15.0 miEast (80°)11.5 mphMostly Cloudy
4:00 PM44.6 °F32.0 °F61 %29.89 in15.0 miEast (100°)11.5 mphMostly Cloudy
5:00 PM42.8 °F32.0 °F66 %29.89 in15.0 miEast (90°)10.4 mphOvercast
6:00 PM42.0 °F33.0 °F60 %29.90 in15.0 miEast (100°)12.7 mphMostly Cloudy
6:00 PM42.8 °F32.0 °F66 %29.90 in15.0 miEast (90°)11.5 mph18.4 mphMostly Cloudy
7:00 PM41.0 °F32.0 °F70 %29.91 in15.0 miEast (100°)15.0 mphOvercast
8:00 PM39.2 °F32.0 °F75 %29.91 in10.0 miEast (100°)13.8 mphOvercast
9:00 PM39.2 °F30.2 °F70 %29.92 in10.0 miEast (80°)12.7 mphOvercast
10:00 PM37.4 °F30.2 °F75 %29.93 in10.0 miEast (90°)6.9 mphMostly Cloudy
10:12 PM35.6 °F30.2 °F81 %29.93 in10.0 miEast (80°)5.8 mphMostly Cloudy
11:00 PM35.6 °F30.2 °F81 %29.93 in10.0 miENE (70°)4.6 mphMostly Cloudy
Hourly data recorded from CYYC, located miles away from Calgary, Alberta







STORIES FROM OUR PARTNERS